TimeCDT,TemperatureF,Dew PointF,Humidity,Sea Level PressureIn,VisibilityMPH,Wind Direction,Wind SpeedMPH,Gust SpeedMPH,PrecipitationIn,Events,Conditions,WindDirDegrees,DateUTC
12:51 AM,50.0,45.0,83,30.12,10.0,NNW,6.9,-,N/A,,Mostly Cloudy,340,2013-04-04 05:51:00
1:29 AM,50.0,44.6,82,30.14,10.0,NNW,6.9,-,N/A,,Overcast,330,2013-04-04 06:29:00
1:51 AM,50.0,45.0,83,30.10,10.0,NNW,6.9,-,N/A,,Overcast,340,2013-04-04 06:51:00
2:51 AM,48.9,44.1,83,30.09,10.0,North,8.1,-,N/A,,Overcast,350,2013-04-04 07:51:00
3:51 AM,48.9,44.1,83,30.09,10.0,NNW,9.2,-,N/A,,Mostly Cloudy,330,2013-04-04 08:51:00
4:51 AM,46.9,43.0,86,30.11,10.0,NW,6.9,-,N/A,,Mostly Cloudy,310,2013-04-04 09:51:00
5:51 AM,48.0,44.1,86,30.12,10.0,NW,6.9,-,N/A,,Mostly Cloudy,320,2013-04-04 10:51:00
6:51 AM,48.0,43.0,83,30.14,10.0,NW,8.1,-,N/A,,Overcast,310,2013-04-04 11:51:00
7:51 AM,48.0,41.0,77,30.16,10.0,NNW,10.4,-,N/A,,Overcast,330,2013-04-04 12:51:00
8:51 AM,48.9,41.0,74,30.17,10.0,NNW,11.5,-,N/A,,Overcast,330,2013-04-04 13:51:00
9:37 AM,51.8,41.0,67,30.21,10.0,NW,12.7,-,N/A,,Scattered Clouds,320,2013-04-04 14:37:00
9:51 AM,52.0,41.0,66,30.19,10.0,North,12.7,-,N/A,,Scattered Clouds,350,2013-04-04 14:51:00
10:51 AM,54.0,42.1,64,30.19,10.0,North,13.8,21.9,N/A,,Partly Cloudy,350,2013-04-04 15:51:00
11:51 AM,57.9,42.1,56,30.19,10.0,NW,15.0,25.3,N/A,,Partly Cloudy,310,2013-04-04 16:51:00
12:51 PM,61.0,44.1,54,30.17,10.0,NNW,13.8,23.0,N/A,,Scattered Clouds,340,2013-04-04 17:51:00
1:51 PM,63.0,43.0,48,30.13,10.0,North,12.7,21.9,N/A,,Scattered Clouds,350,2013-04-04 18:51:00
2:51 PM,66.9,44.1,44,30.10,10.0,North,12.7,-,N/A,,Partly Cloudy,350,2013-04-04 19:51:00
3:51 PM,69.8,44.6,40,30.10,10.0,NNW,13.8,18.4,N/A,,Partly Cloudy,330,2013-04-04 20:51:00
4:51 PM,71.1,44.1,38,30.05,10.0,NW,12.7,18.4,N/A,,Clear,320,2013-04-04 21:51:00
5:51 PM,70.0,43.0,38,30.05,10.0,North,10.4,-,N/A,,Clear,10,2013-04-04 22:51:00
6:51 PM,68.0,43.0,40,30.06,10.0,North,5.8,-,N/A,,Clear,360,2013-04-04 23:51:00
7:51 PM,64.0,44.1,48,30.08,10.0,NE,5.8,-,N/A,,Clear,40,2013-04-05 00:51:00
8:51 PM,60.1,44.1,55,30.10,10.0,NE,5.8,-,N/A,,Clear,40,2013-04-05 01:51:00
9:51 PM,57.0,44.1,62,30.12,10.0,NE,5.8,-,N/A,,Clear,40,2013-04-05 02:51:00
10:51 PM,55.0,44.1,67,30.13,10.0,NE,4.6,-,N/A,,Clear,50,2013-04-05 03:51:00
11:51 PM,52.0,44.1,74,30.16,10.0,ENE,8.1,-,N/A,,Clear,70,2013-04-05 04:51:00